TimePDT,TemperatureF,Dew PointF,Humidity,Sea Level PressureIn,VisibilityMPH,Wind Direction,Wind SpeedMPH,Gust SpeedMPH,PrecipitationIn,Events,Conditions,WindDirDegrees,DateUTC
12:52 AM,66.0,28.0,24,29.85,-9999.0,Calm,Calm,-,N/A,,Unknown,0,2013-09-01 07:52:00
1:52 AM,64.9,28.0,25,29.84,-9999.0,ENE,9.2,-,N/A,,Unknown,70,2013-09-01 08:52:00
2:52 AM,57.9,27.0,31,29.86,-9999.0,SSW,6.9,-,N/A,,Unknown,210,2013-09-01 09:52:00
3:52 AM,59.0,27.0,29,29.86,-9999.0,SE,6.9,-,N/A,,Unknown,140,2013-09-01 10:52:00
4:52 AM,57.9,26.1,30,29.87,-9999.0,SE,4.6,-,N/A,,Unknown,140,2013-09-01 11:52:00
5:52 AM,59.0,25.0,27,29.87,-9999.0,SE,3.5,-,N/A,,Unknown,140,2013-09-01 12:52:00
6:52 AM,59.0,24.1,26,29.89,-9999.0,Calm,Calm,-,N/A,,Unknown,0,2013-09-01 13:52:00
7:52 AM,68.0,25.0,20,29.89,-9999.0,Calm,Calm,-,N/A,,Unknown,0,2013-09-01 14:52:00
8:52 AM,75.9,24.1,15,29.89,-9999.0,Calm,Calm,-,N/A,,Unknown,0,2013-09-01 15:52:00
9:52 AM,80.1,23.0,12,29.88,-9999.0,Calm,Calm,-,N/A,,Unknown,0,2013-09-01 16:52:00
10:52 AM,84.9,23.0,10,29.88,-9999.0,Variable,3.5,-,N/A,,Unknown,0,2013-09-01 17:52:00
11:52 AM,87.1,23.0,10,29.86,-9999.0,North,4.6,-,N/A,,Unknown,360,2013-09-01 18:52:00
12:52 PM,87.1,27.0,11,29.85,-9999.0,Calm,Calm,-,N/A,,Unknown,0,2013-09-01 19:52:00
1:52 PM,90.0,30.0,12,29.83,-9999.0,NW,4.6,-,N/A,,Unknown,320,2013-09-01 20:52:00
2:52 PM,91.0,30.9,12,29.81,-9999.0,SE,4.6,-,N/A,,Unknown,130,2013-09-01 21:52:00
3:52 PM,91.0,28.9,11,29.79,-9999.0,North,8.1,-,N/A,,Unknown,10,2013-09-01 22:52:00
4:52 PM,91.9,30.0,11,29.77,-9999.0,North,4.6,-,N/A,,Unknown,10,2013-09-01 23:52:00
5:52 PM,91.9,30.0,11,29.75,-9999.0,Calm,Calm,-,N/A,,Unknown,0,2013-09-02 00:52:00
6:52 PM,89.1,35.1,15,29.77,-9999.0,West,8.1,-,N/A,,Unknown,260,2013-09-02 01:52:00
7:52 PM,81.0,37.0,21,29.80,-9999.0,WNW,9.2,-,N/A,,Unknown,300,2013-09-02 02:52:00
8:52 PM,78.1,39.0,25,29.81,-9999.0,Calm,Calm,-,N/A,,Unknown,0,2013-09-02 03:52:00
9:52 PM,75.9,37.0,24,29.81,-9999.0,ENE,4.6,-,N/A,,Unknown,70,2013-09-02 04:52:00
10:52 PM,73.9,37.0,26,29.81,-9999.0,WSW,4.6,-,N/A,,Unknown,240,2013-09-02 05:52:00
11:52 PM,71.1,36.0,28,29.82,-9999.0,SW,3.5,-,N/A,,Unknown,230,2013-09-02 06:52:00